Lexington, KY

9:11 PM EST on February 06, 2016 (GMT -0500)
Blue Grass

Weather History for KLEX - November, 2011

Change the Weather History Date:

Monday, November 14, 2011

  Actual Average Record
Temperature  
Mean Temperature 66 °F 47 °F  
Max Temperature 72 °F 56 °F 77 °F (1971)
Min Temperature 59 °F 38 °F 15 °F (1986)
Degree Days  
Heating Degree Days 0 18  
Month to date heating degree days 187 218  
Since 1 July heating degree days 588 544  
Cooling Degree Days 1 0  
Month to date cooling degree days 1 0  
Year to date cooling degree days 1306 1188  
Growing Degree Days 17 (Base 50)    
Moisture  
Dew Point 56 °F    
Average Humidity 70    
Maximum Humidity 78    
Minimum Humidity 61    
Precipitation  
Precipitation 0.05 in 0.12 in 1.52 in (1915)
Month to date precipitation 0.87 1.54  
Year to date precipitation 55.11 39.25  
Snow  
Snow 0.00 in 0.10 in 3.00 in (1906)
Month to date snowfall 0.0 0.1  
Since 1 July snowfall 0.0 0.1  
Since 1 September snowfall 0.0 0.1  
Snow Depth 0.00 in    
Sea Level Pressure  
Sea Level Pressure 29.82 in    
Wind  
Wind Speed 20 mph (SSW)    
Max Wind Speed 31 mph    
Max Gust Speed 38 mph    
Visibility 10 miles    
Events Rain    
T = Trace of Precipitation, MM = Missing Value Source: NWS Daily Summary

Daily Weather History Graph

Daily Weather History Graph

Search for Another Location

Airport or City:

Trip Planner

Search our weather history database for the weather conditions in past years. The results will help you decide how hot, cold, wet, or windy it might be!

Date:

Astronomy

Nov. 14, 2011 Rise Set
Actual Time 7:17 AM EST 5:27 PM EST
Civil Twilight 6:49 AM EST 5:55 PM EST
Nautical Twilight 6:18 AM EST 6:27 PM EST
Astronomical Twilight 5:46 AM EST 6:58 PM EST
Moon 8:34 PM EST (11/14) 10:34 AM EST (11/14)
Length of Visible Light 11h 05m
Length of Day
10h 09m
Waning Gibbous, 87% of the Moon is Illuminated
Nov 14
Waning Gibbous
Nov 18
Last Quarter
Nov 25
New
Dec 2
First Quarter
Dec 10
Full

Hourly Weather History & Observations

Time (EST) Temp. Dew Point Humidity Pressure Visibility Wind Dir Wind Speed Gust Speed Precip Events Conditions
12:54 AM 63.0 °F 51.1 °F 65% 29.84 in 10.0 mi SSW 17.3 mph - N/A   Partly Cloudy
1:54 AM 63.0 °F 52.0 °F 67% 29.84 in 10.0 mi SSW 19.6 mph 29.9 mph N/A   Clear
2:54 AM 64.0 °F 53.1 °F 67% 29.84 in 10.0 mi SSW 21.9 mph 32.2 mph N/A   Clear
3:54 AM 64.9 °F 54.0 °F 68% 29.83 in 10.0 mi SW 23.0 mph 31.1 mph N/A   Clear
4:54 AM 64.9 °F 54.0 °F 68% 29.83 in 10.0 mi SSW 24.2 mph 31.1 mph N/A   Scattered Clouds
5:54 AM 64.9 °F 55.0 °F 70% 29.84 in 10.0 mi SSW 17.3 mph 26.5 mph N/A   Overcast
6:02 AM 64.4 °F 55.4 °F 73% 29.85 in 10.0 mi SSW 19.6 mph 25.3 mph N/A   Overcast
6:10 AM 64.4 °F 55.4 °F 73% 29.85 in 10.0 mi SSW 17.3 mph 27.6 mph N/A   Overcast
6:54 AM 64.4 °F 55.4 °F 73% 29.85 in 10.0 mi SSW 20.7 mph 27.6 mph N/A   Overcast
7:54 AM 64.9 °F 55.9 °F 73% 29.84 in 10.0 mi SSW 21.9 mph 29.9 mph N/A   Overcast
8:54 AM 64.9 °F 57.0 °F 75% 29.84 in 10.0 mi SSW 19.6 mph 32.2 mph N/A   Overcast
9:54 AM 66.0 °F 57.0 °F 73% 29.84 in 10.0 mi SSW 21.9 mph 27.6 mph N/A   Overcast
10:54 AM 66.9 °F 57.9 °F 73% 29.85 in 10.0 mi SSW 19.6 mph 25.3 mph N/A   Overcast
11:54 AM 68.0 °F 59.0 °F 73% 29.83 in 10.0 mi SSW 18.4 mph 34.5 mph N/A   Overcast
12:01 PM 68.0 °F 59.0 °F 73% 29.85 in 10.0 mi SSW 25.3 mph 34.5 mph N/A   Overcast
12:23 PM 68.0 °F 59.0 °F 73% 29.84 in 10.0 mi SSW 24.2 mph 31.1 mph N/A   Overcast
12:54 PM 68.0 °F 59.0 °F 73% 29.81 in 10.0 mi SSW 25.3 mph 31.1 mph N/A   Overcast
1:54 PM 69.8 °F 59.0 °F 68% 29.80 in 10.0 mi SSW 21.9 mph 27.6 mph N/A   Overcast
2:54 PM 71.1 °F 57.9 °F 63% 29.76 in 10.0 mi SSW 27.6 mph 35.7 mph N/A   Mostly Cloudy
3:54 PM 71.1 °F 57.9 °F 63% 29.77 in 10.0 mi SW 16.1 mph 25.3 mph N/A   Overcast
4:54 PM 71.1 °F 57.0 °F 61% 29.77 in 10.0 mi SSW 19.6 mph 25.3 mph N/A   Overcast
5:54 PM 70.0 °F 57.0 °F 63% 29.75 in 10.0 mi South 15.0 mph - N/A   Overcast
6:54 PM 68.0 °F 57.0 °F 68% 29.75 in 10.0 mi South 15.0 mph - N/A   Partly Cloudy
7:54 PM 69.1 °F 57.0 °F 65% 29.75 in 10.0 mi South 16.1 mph 25.3 mph N/A   Overcast
8:54 PM 69.1 °F 57.0 °F 65% 29.77 in 10.0 mi SSW 17.3 mph - N/A   Overcast
9:54 PM 69.1 °F 57.9 °F 68% 29.78 in 10.0 mi SSW 18.4 mph 25.3 mph N/A   Overcast
10:54 PM 69.1 °F 57.9 °F 68% 29.81 in 10.0 mi West 13.8 mph 26.5 mph N/A   Overcast
11:03 PM 64.4 °F 55.4 °F 73% 29.84 in 10.0 mi West 18.4 mph 29.9 mph N/A   Overcast
11:54 PM 60.1 °F 57.0 °F 90% 29.83 in 9.0 mi West 16.1 mph 21.9 mph 0.05 in Rain Light Rain